QPF
0.00 0.00 0.00 0.01 0.01 0.01 0.01 0.01 0.02 0.02 0.02 0.02 0.01 0.01 0.01 0.02 0.04 0.09 0.09 0.09 0.15 0.16 0.19 0.21 0.20 0.16 0.12 0.07 0.06 0.08 0.07 0.08 0.07 0.08 0.11 0.09 0.10 0.10 0.09 0.09 0.09 0.10 0.08 0.07 0.05 0.05 0.05 0.06 0.05
0.00 0.00 0.00 0.01 0.01 0.01 0.01 0.01 0.02 0.01 0.01 0.01 0.01 0.01 0.01 0.02 0.03 0.06 0.08 0.12 0.14 0.13 0.16 0.18 0.16 0.15 0.10 0.08 0.08 0.08 0.06 0.05 0.05 0.06 0.07 0.08 0.10 0.11 0.10 0.08 0.09 0.09 0.07 0.06 0.05 0.05 0.05 0.05 0.06
0.00 0.00 0.01 0.01 0.01 0.01 0.01 0.01 0.01 0.01 0.01 0.01 0.01 0.01 0.02 0.03 0.03 0.07 0.11 0.13 0.11 0.10 0.12 0.17 0.13 0.11 0.09 0.09 0.08 0.07 0.05 0.05 0.04 0.04 0.05 0.06 0.07 0.08 0.08 0.07 0.06 0.06 0.05 0.04 0.03 0.03 0.04 0.04 0.05
0.00 0.00 0.01 0.01 0.00 0.01 0.01 0.01 0.01 0.01 0.01 0.01 0.01 0.01 0.02 0.04 0.04 0.06 0.09 0.13 0.12 0.12 0.14 0.17 0.15 0.11 0.09 0.07 0.07 0.06 0.05 0.04 0.03 0.03 0.03 0.04 0.05 0.05 0.05 0.04 0.04 0.03 0.03 0.03 0.03 0.04 0.04 0.04 0.05
0.00 0.01 0.01 0.01 0.00 0.00 0.00 0.00 0.00 0.00 0.01 0.01 0.01 0.01 0.02 0.04 0.04 0.05 0.08 0.13 0.15 0.18 0.17 0.17 0.15 0.10 0.08 0.06 0.04 0.04 0.04 0.04 0.04 0.04 0.04 0.04 0.04 0.03 0.02 0.02 0.03 0.03 0.03 0.03 0.04 0.04 0.04 0.05 0.05
0.01 0.01 0.01 0.01 0.00 0.00 0.00 0.00 0.00 0.00 0.01 0.01 0.01 0.01 0.03 0.04 0.04 0.04 0.06 0.10 0.12 0.12 0.12 0.13 0.12 0.08 0.07 0.05 0.03 0.03 0.03 0.03 0.03 0.04 0.04 0.04 0.04 0.03 0.02 0.03 0.04 0.04 0.04 0.03 0.04 0.04 0.04 0.06 0.07
0.00 0.00 0.01 0.00 0.00 0.00 0.00 0.00 0.01 0.01 0.01 0.01 0.01 0.01 0.03 0.04 0.03 0.02 0.03 0.06 0.09 0.09 0.09 0.09 0.10 0.08 0.07 0.05 0.03 0.03 0.02 0.02 0.02 0.03 0.03 0.02 0.03 0.03 0.03 0.04 0.07 0.07 0.06 0.06 0.05 0.05 0.06 0.06 0.07
0.00 0.00 0.00 0.00 0.00 0.00 0.00 0.00 0.01 0.02 0.01 0.01 0.01 0.01 0.03 0.03 0.02 0.02 0.02 0.05 0.07 0.07 0.08 0.06 0.06 0.07 0.08 0.07 0.05 0.04 0.02 0.02 0.02 0.02 0.02 0.02 0.04 0.05 0.05 0.05 0.07 0.08 0.07 0.09 0.08 0.08 0.08 0.08 0.08
0.00 0.00 0.00 0.00 0.00 0.00 0.00 0.01 0.01 0.01 0.01 0.01 0.02 0.01 0.01 0.01 0.01 0.01 0.02 0.04 0.05 0.05 0.07 0.05 0.03 0.04 0.06 0.08 0.06 0.05 0.03 0.02 0.02 0.02 0.02 0.03 0.06 0.11 0.12 0.07 0.07 0.08 0.09 0.11 0.12 0.13 0.12 0.11 0.08
0.00 0.00 0.00 0.00 0.00 0.00 0.01 0.01 0.01 0.00 0.01 0.01 0.02 0.01 0.01 0.01 0.01 0.01 0.02 0.03 0.03 0.03 0.04 0.04 0.03 0.03 0.04 0.05 0.05 0.06 0.04 0.03 0.02 0.02 0.02 0.05 0.08 0.16 0.17 0.14 0.15 0.15 0.15 0.14 0.15 0.15 0.12 0.10 0.08
0.00 0.00 0.00 0.00 0.00 0.00 0.01 0.01 0.01 0.01 0.01 0.01 0.01 0.01 0.01 0.01 0.01 0.01 0.01 0.02 0.02 0.02 0.02 0.02 0.02 0.02 0.03 0.04 0.04 0.04 0.03 0.03 0.03 0.02 0.02 0.04 0.08 0.13 0.10 0.10 0.12 0.13 0.12 0.14 0.14 0.11 0.08 0.06 0.07
0.00 0.00 0.00 0.00 0.00 0.00 0.00 0.01 0.01 0.02 0.01 0.00 0.00 0.01 0.01 0.01 0.00 0.01 0.01 0.01 0.02 0.02 0.01 0.01 0.01 0.01 0.02 0.03 0.02 0.02 0.03 0.03 0.03 0.03 0.02 0.02 0.03 0.05 0.06 0.06 0.08 0.08 0.10 0.12 0.11 0.10 0.07 0.06 0.06
0.00 0.00 0.00 0.00 0.00 0.00 0.00 0.00 0.01 0.01 0.00 0.00 0.00 0.01 0.00 0.01 0.00 0.00 0.00 0.01 0.01 0.02 0.01 0.01 0.01 0.01 0.01 0.03 0.02 0.02 0.01 0.02 0.04 0.04 0.03 0.02 0.03 0.04 0.05 0.07 0.07 0.06 0.07 0.07 0.08 0.08 0.06 0.05 0.05
0.00 0.00 0.00 0.00 0.00 0.00 0.00 0.00 0.00 0.00 0.00 0.00 0.00 0.01 0.01 0.00 0.00 0.00 0.00 0.00 0.00 0.01 0.01 0.01 0.01 0.01 0.01 0.02 0.03 0.02 0.02 0.01 0.02 0.05 0.05 0.04 0.04 0.05 0.05 0.06 0.08 0.07 0.06 0.05 0.05 0.05 0.06 0.06 0.06
0.00 0.00 0.00 0.00 0.00 0.00 0.00 0.00 0.00 0.00 0.00 0.00 0.01 0.01 0.00 0.00 0.00 0.00 0.00 0.00 0.00 0.00 0.01 0.01 0.01 0.01 0.01 0.01 0.02 0.02 0.02 0.02 0.03 0.04 0.09 0.06 0.05 0.07 0.06 0.04 0.05 0.06 0.07 0.09 0.08 0.07 0.08 0.06 0.07
0.00 0.00 0.00 0.00 0.00 0.00 0.00 0.00 0.00 0.00 0.00 0.00 0.01 0.01 0.00 0.00 0.00 0.00 0.00 0.00 0.00 0.00 0.00 0.01 0.01 0.01 0.01 0.01 0.01 0.01 0.01 0.02 0.03 0.04 0.09 0.08 0.07 0.08 0.06 0.04 0.03 0.03 0.05 0.09 0.11 0.11 0.09 0.09 0.10
0.00 0.00 0.00 0.00 0.00 0.00 0.00 0.00 0.00 0.00 0.00 0.01 0.01 0.00 0.00 0.00 0.00 0.00 0.00 0.00 0.00 0.00 0.00 0.00 0.01 0.01 0.01 0.01 0.01 0.01 0.02 0.02 0.03 0.05 0.08 0.08 0.08 0.09 0.07 0.04 0.04 0.04 0.06 0.07 0.07 0.08 0.09 0.11 0.13
0.00 0.00 0.00 0.00 0.00 0.00 0.00 0.00 0.00 0.00 0.00 0.00 0.00 0.00 0.00 0.00 0.00 0.00 0.00 0.00 0.00 0.00 0.00 0.00 0.00 0.01 0.01 0.01 0.02 0.02 0.02 0.02 0.03 0.05 0.07 0.07 0.08 0.08 0.07 0.04 0.04 0.05 0.06 0.07 0.07 0.07 0.09 0.10 0.11
0.00 0.00 0.00 0.00 0.00 0.00 0.00 0.00 0.00 0.00 0.00 0.00 0.00 0.00 0.00 0.00 0.00 0.00 0.00 0.00 0.01 0.02 0.01 0.00 0.01 0.02 0.04 0.04 0.03 0.03 0.03 0.03 0.04 0.04 0.05 0.07 0.06 0.06 0.07 0.04 0.04 0.05 0.06 0.07 0.06 0.07 0.09 0.09 0.08
0.00 0.00 0.00 0.00 0.00 0.00 0.00 0.00 0.00 0.00 0.00 0.00 0.00 0.00 0.00 0.00 0.00 0.00 0.00 0.00 0.01 0.02 0.01 0.01 0.01 0.01 0.02 0.05 0.09 0.09 0.07 0.05 0.05 0.05 0.06 0.07 0.06 0.05 0.05 0.05 0.06 0.07 0.07 0.07 0.08 0.07 0.07 0.07 0.08
0.00 0.00 0.00 0.00 0.00 0.00 0.00 0.00 0.00 0.00 0.00 0.00 0.00 0.00 0.00 0.00 0.00 0.00 0.00 0.00 0.00 0.00 0.00 0.01 0.01 0.01 0.01 0.03 0.06 0.07 0.06 0.06 0.07 0.06 0.06 0.07 0.05 0.04 0.03 0.04 0.06 0.08 0.07 0.07 0.07 0.07 0.09 0.09 0.08
0.00 0.00 0.00 0.00 0.00 0.01 0.00 0.00 0.00 0.00 0.00 0.00 0.00 0.00 0.00 0.00 0.00 0.00 0.00 0.00 0.01 0.00 0.00 0.00 0.00 0.01 0.01 0.01 0.02 0.02 0.03 0.05 0.07 0.07 0.08 0.07 0.05 0.03 0.03 0.03 0.06 0.06 0.06 0.07 0.06 0.06 0.08 0.09 0.09
0.00 0.00 0.00 0.00 0.00 0.01 0.00 0.00 0.00 0.00 0.00 0.00 0.00 0.00 0.00 0.00 0.00 0.00 0.00 0.00 0.00 0.00 0.00 0.00 0.00 0.01 0.01 0.01 0.01 0.02 0.01 0.02 0.03 0.04 0.05 0.06 0.05 0.05 0.04 0.05 0.06 0.06 0.06 0.06 0.06 0.07 0.06 0.07 0.09
0.00 0.00 0.00 0.00 0.00 0.00 0.00 0.00 0.00 0.00 0.00 0.00 0.00 0.00 0.00 0.00 0.00 0.00 0.00 0.00 0.00 0.00 0.00 0.00 0.00 0.01 0.01 0.01 0.01 0.01 0.01 0.02 0.03 0.03 0.03 0.04 0.07 0.09 0.10 0.08 0.09 0.08 0.06 0.06 0.06 0.07 0.06 0.06 0.07
0.00 0.00 0.00 0.00 0.00 0.00 0.00 0.00 0.00 0.00 0.00 0.00 0.00 0.00 0.00 0.00 0.00 0.00 0.00 0.00 0.00 0.00 0.00 0.00 0.00 0.01 0.01 0.01 0.01 0.01 0.02 0.02 0.02 0.02 0.03 0.03 0.03 0.05 0.07 0.07 0.07 0.07 0.05 0.05 0.05 0.05 0.06 0.06 0.07
0.00 0.00 0.00 0.00 0.00 0.00 0.00 0.00 0.00 0.00 0.00 0.00 0.00 0.00 0.00 0.00 0.00 0.00 0.00 0.00 0.00 0.00 0.00 0.00 0.00 0.01 0.01 0.02 0.01 0.01 0.01 0.01 0.02 0.02 0.02 0.02 0.02 0.02 0.04 0.05 0.04 0.05 0.05 0.04 0.05 0.05 0.05 0.06 0.07
0.00 0.00 0.00 0.00 0.00 0.00 0.00 0.00 0.00 0.00 0.00 0.00 0.00 0.00 0.00 0.00 0.00 0.00 0.00 0.00 0.00 0.00 0.01 0.01 0.01 0.03 0.03 0.02 0.01 0.01 0.00 0.00 0.01 0.01 0.01 0.01 0.02 0.02 0.03 0.03 0.03 0.03 0.05 0.06 0.07 0.06 0.07 0.06 0.06
0.00 0.00 0.00 0.00 0.00 0.00 0.00 0.00 0.00 0.00 0.00 0.00 0.00 0.00 0.00 0.00 0.00 0.00 0.00 0.00 0.00 0.01 0.01 0.01 0.04 0.08 0.07 0.03 0.01 0.01 0.01 0.00 0.00 0.00 0.00 0.01 0.02 0.03 0.03 0.02 0.02 0.02 0.04 0.05 0.05 0.05 0.04 0.04 0.04
0.00 0.00 0.00 0.00 0.00 0.00 0.00 0.00 0.00 0.00 0.00 0.00 0.00 0.00 0.00 0.00 0.00 0.00 0.00 0.00 0.01 0.01 0.01 0.02 0.04 0.07 0.05 0.02 0.01 0.01 0.01 0.01 0.00 0.00 0.00 0.01 0.01 0.02 0.02 0.01 0.02 0.02 0.03 0.03 0.04 0.04 0.04 0.04 0.04
0.00 0.00 0.00 0.00 0.00 0.00 0.00 0.00 0.00 0.00 0.00 0.00 0.00 0.00 0.00 0.00 0.01 0.01 0.01 0.01 0.01 0.01 0.01 0.01 0.02 0.02 0.01 0.01 0.02 0.01 0.01 0.00 0.00 0.00 0.01 0.01 0.01 0.01 0.01 0.01 0.01 0.01 0.02 0.02 0.03 0.03 0.03 0.03 0.04
MSLP
1005.50 1005.87 1006.30 1006.73 1007.08 1007.31 1007.40 1007.37 1007.25 1007.12 1007.04 1007.08 1007.23 1007.49 1007.79 1008.05 1008.21 1008.20 1008.03 1007.73 1007.37 1007.06 1006.89 1006.90 1007.13 1007.54 1008.07 1008.64 1009.16 1009.61 1009.95 1010.20 1010.42 1010.66 1010.94 1011.30 1011.72 1012.17 1012.61 1013.01 1013.37 1013.67 1013.95 1014.25 1014.57 1014.93 1015.32 1015.71 1016.07
1005.47 1005.86 1006.30 1006.71 1007.03 1007.24 1007.31 1007.26 1007.14 1007.03 1006.98 1007.04 1007.23 1007.52 1007.86 1008.16 1008.36 1008.40 1008.28 1008.05 1007.77 1007.53 1007.41 1007.47 1007.72 1008.14 1008.67 1009.22 1009.74 1010.17 1010.51 1010.78 1011.01 1011.24 1011.52 1011.85 1012.22 1012.61 1012.98 1013.32 1013.61 1013.89 1014.16 1014.47 1014.83 1015.23 1015.66 1016.08 1016.45
1005.55 1005.95 1006.36 1006.73 1007.01 1007.17 1007.21 1007.16 1007.05 1006.96 1006.94 1007.05 1007.27 1007.59 1007.95 1008.28 1008.50 1008.59 1008.54 1008.38 1008.19 1008.03 1007.99 1008.10 1008.38 1008.80 1009.31 1009.82 1010.30 1010.71 1011.03 1011.29 1011.52 1011.77 1012.04 1012.36 1012.70 1013.04 1013.37 1013.66 1013.92 1014.18 1014.46 1014.79 1015.18 1015.62 1016.07 1016.50 1016.85
1005.75 1006.13 1006.49 1006.79 1007.01 1007.11 1007.12 1007.05 1006.97 1006.92 1006.95 1007.10 1007.37 1007.71 1008.09 1008.43 1008.68 1008.80 1008.81 1008.74 1008.64 1008.58 1008.62 1008.79 1009.10 1009.52 1009.98 1010.44 1010.86 1011.21 1011.50 1011.74 1011.98 1012.23 1012.52 1012.84 1013.18 1013.51 1013.81 1014.09 1014.34 1014.61 1014.90 1015.25 1015.65 1016.10 1016.55 1016.95 1017.26
1006.01 1006.34 1006.62 1006.84 1006.98 1007.02 1007.00 1006.93 1006.88 1006.89 1006.98 1007.19 1007.50 1007.87 1008.26 1008.61 1008.88 1009.04 1009.11 1009.11 1009.12 1009.16 1009.30 1009.53 1009.87 1010.27 1010.69 1011.08 1011.42 1011.70 1011.94 1012.15 1012.38 1012.64 1012.95 1013.29 1013.65 1013.99 1014.31 1014.60 1014.86 1015.14 1015.44 1015.80 1016.21 1016.64 1017.06 1017.41 1017.65
1006.26 1006.51 1006.71 1006.83 1006.87 1006.86 1006.81 1006.76 1006.75 1006.83 1007.00 1007.28 1007.64 1008.04 1008.44 1008.80 1009.08 1009.28 1009.40 1009.50 1009.60 1009.75 1009.98 1010.29 1010.65 1011.04 1011.41 1011.73 1011.98 1012.18 1012.35 1012.53 1012.74 1013.01 1013.34 1013.71 1014.10 1014.48 1014.82 1015.13 1015.41 1015.70 1016.02 1016.37 1016.76 1017.16 1017.52 1017.80 1017.96
1006.41 1006.58 1006.67 1006.69 1006.65 1006.58 1006.51 1006.48 1006.54 1006.69 1006.95 1007.31 1007.72 1008.17 1008.59 1008.96 1009.27 1009.50 1009.68 1009.86 1010.06 1010.32 1010.64 1011.01 1011.41 1011.78 1012.11 1012.36 1012.54 1012.66 1012.77 1012.89 1013.09 1013.36 1013.70 1014.09 1014.51 1014.91 1015.28 1015.60 1015.91 1016.20 1016.52 1016.85 1017.21 1017.55 1017.84 1018.05 1018.14
1006.42 1006.50 1006.49 1006.41 1006.29 1006.17 1006.10 1006.10 1006.22 1006.45 1006.80 1007.24 1007.73 1008.22 1008.67 1009.07 1009.39 1009.66 1009.91 1010.16 1010.46 1010.81 1011.22 1011.66 1012.09 1012.46 1012.76 1012.95 1013.06 1013.12 1013.17 1013.25 1013.42 1013.67 1014.01 1014.41 1014.83 1015.24 1015.62 1015.95 1016.26 1016.55 1016.85 1017.17 1017.48 1017.77 1017.99 1018.13 1018.16
1006.30 1006.29 1006.18 1006.01 1005.83 1005.67 1005.60 1005.63 1005.81 1006.12 1006.56 1007.07 1007.62 1008.16 1008.66 1009.08 1009.45 1009.76 1010.07 1010.40 1010.78 1011.21 1011.70 1012.19 1012.65 1013.04 1013.31 1013.47 1013.54 1013.54 1013.55 1013.60 1013.73 1013.96 1014.28 1014.66 1015.07 1015.46 1015.83 1016.15 1016.44 1016.72 1017.00 1017.29 1017.56 1017.80 1017.98 1018.06 1018.05
1006.10 1006.01 1005.82 1005.58 1005.34 1005.16 1005.08 1005.14 1005.35 1005.73 1006.23 1006.81 1007.42 1008.01 1008.55 1009.02 1009.42 1009.79 1010.15 1010.55 1011.00 1011.51 1012.05 1012.59 1013.08 1013.47 1013.74 1013.89 1013.93 1013.91 1013.89 1013.91 1014.02 1014.23 1014.52 1014.86 1015.23 1015.59 1015.91 1016.20 1016.47 1016.73 1016.98 1017.25 1017.50 1017.71 1017.85 1017.91 1017.88
1005.90 1005.75 1005.50 1005.21 1004.93 1004.71 1004.62 1004.69 1004.92 1005.33 1005.87 1006.49 1007.14 1007.78 1008.36 1008.88 1009.33 1009.75 1010.17 1010.63 1011.14 1011.69 1012.28 1012.85 1013.36 1013.76 1014.03 1014.18 1014.22 1014.20 1014.17 1014.19 1014.28 1014.47 1014.72 1015.03 1015.34 1015.65 1015.93 1016.18 1016.41 1016.64 1016.88 1017.13 1017.37 1017.57 1017.70 1017.75 1017.71
1005.81 1005.61 1005.33 1005.00 1004.68 1004.44 1004.32 1004.36 1004.59 1004.99 1005.52 1006.16 1006.83 1007.50 1008.12 1008.69 1009.19 1009.67 1010.15 1010.66 1011.20 1011.79 1012.40 1012.98 1013.50 1013.90 1014.18 1014.34 1014.40 1014.39 1014.38 1014.41 1014.51 1014.68 1014.91 1015.18 1015.45 1015.71 1015.94 1016.15 1016.35 1016.56 1016.79 1017.03 1017.27 1017.47 1017.61 1017.66 1017.63
1005.88 1005.68 1005.37 1005.02 1004.67 1004.39 1004.23 1004.22 1004.39 1004.75 1005.25 1005.85 1006.52 1007.20 1007.85 1008.46 1009.03 1009.56 1010.09 1010.64 1011.22 1011.83 1012.44 1013.02 1013.53 1013.93 1014.22 1014.39 1014.47 1014.49 1014.52 1014.57 1014.69 1014.86 1015.08 1015.33 1015.57 1015.79 1015.99 1016.17 1016.35 1016.54 1016.77 1017.01 1017.26 1017.48 1017.63 1017.69 1017.67
1006.17 1005.96 1005.65 1005.28 1004.90 1004.58 1004.36 1004.28 1004.36 1004.63 1005.05 1005.60 1006.23 1006.90 1007.57 1008.22 1008.83 1009.42 1010.00 1010.59 1011.19 1011.81 1012.41 1012.98 1013.48 1013.87 1014.16 1014.34 1014.45 1014.51 1014.57 1014.66 1014.80 1015.00 1015.23 1015.47 1015.71 1015.92 1016.10 1016.27 1016.44 1016.63 1016.85 1017.10 1017.36 1017.60 1017.76 1017.84 1017.83
1006.61 1006.42 1006.11 1005.73 1005.33 1004.96 1004.67 1004.49 1004.47 1004.62 1004.94 1005.40 1005.96 1006.60 1007.27 1007.93 1008.59 1009.23 1009.85 1010.48 1011.10 1011.72 1012.32 1012.87 1013.35 1013.74 1014.03 1014.23 1014.35 1014.45 1014.55 1014.68 1014.85 1015.08 1015.33 1015.59 1015.84 1016.06 1016.24 1016.41 1016.58 1016.77 1017.00 1017.26 1017.52 1017.77 1017.96 1018.05 1018.04
1007.13 1006.95 1006.66 1006.29 1005.87 1005.45 1005.08 1004.80 1004.66 1004.68 1004.87 1005.22 1005.70 1006.28 1006.93 1007.60 1008.28 1008.95 1009.61 1010.27 1010.91 1011.53 1012.13 1012.68 1013.15 1013.54 1013.84 1014.05 1014.20 1014.33 1014.46 1014.62 1014.82 1015.07 1015.35 1015.64 1015.91 1016.15 1016.36 1016.54 1016.72 1016.92 1017.14 1017.40 1017.67 1017.92 1018.12 1018.24 1018.25
1007.62 1007.47 1007.20 1006.83 1006.41 1005.95 1005.51 1005.14 1004.88 1004.76 1004.82 1005.04 1005.43 1005.94 1006.54 1007.19 1007.88 1008.57 1009.25 1009.92 1010.58 1011.21 1011.82 1012.37 1012.86 1013.26 1013.58 1013.82 1014.00 1014.15 1014.30 1014.48 1014.70 1014.97 1015.27 1015.58 1015.88 1016.15 1016.39 1016.59 1016.79 1016.99 1017.21 1017.46 1017.73 1017.98 1018.20 1018.35 1018.39
1007.99 1007.86 1007.62 1007.28 1006.86 1006.38 1005.89 1005.44 1005.07 1004.83 1004.75 1004.85 1005.13 1005.55 1006.09 1006.71 1007.37 1008.05 1008.73 1009.41 1010.07 1010.72 1011.34 1011.92 1012.44 1012.88 1013.24 1013.53 1013.74 1013.92 1014.09 1014.27 1014.50 1014.77 1015.07 1015.40 1015.72 1016.02 1016.28 1016.52 1016.73 1016.94 1017.16 1017.40 1017.65 1017.91 1018.15 1018.33 1018.43
1008.18 1008.08 1007.88 1007.58 1007.18 1006.70 1006.19 1005.67 1005.21 1004.86 1004.67 1004.65 1004.82 1005.14 1005.60 1006.15 1006.76 1007.40 1008.06 1008.72 1009.38 1010.03 1010.68 1011.29 1011.87 1012.38 1012.81 1013.15 1013.42 1013.63 1013.82 1014.01 1014.22 1014.48 1014.77 1015.09 1015.43 1015.75 1016.04 1016.30 1016.54 1016.75 1016.97 1017.20 1017.45 1017.70 1017.96 1018.18 1018.35
1008.21 1008.14 1007.99 1007.74 1007.38 1006.92 1006.39 1005.84 1005.31 1004.88 1004.58 1004.46 1004.52 1004.74 1005.10 1005.57 1006.10 1006.67 1007.27 1007.88 1008.51 1009.16 1009.82 1010.49 1011.13 1011.73 1012.25 1012.68 1013.02 1013.29 1013.50 1013.69 1013.89 1014.11 1014.38 1014.69 1015.02 1015.36 1015.68 1015.97 1016.23 1016.47 1016.69 1016.91 1017.15 1017.40 1017.67 1017.94 1018.17
1008.14 1008.12 1008.02 1007.83 1007.52 1007.09 1006.57 1005.99 1005.42 1004.91 1004.53 1004.32 1004.27 1004.40 1004.65 1005.01 1005.44 1005.91 1006.41 1006.95 1007.52 1008.15 1008.81 1009.52 1010.24 1010.93 1011.56 1012.10 1012.54 1012.88 1013.13 1013.33 1013.51 1013.71 1013.94 1014.23 1014.55 1014.90 1015.24 1015.57 1015.86 1016.12 1016.36 1016.58 1016.81 1017.07 1017.34 1017.64 1017.93
1008.10 1008.12 1008.08 1007.95 1007.69 1007.30 1006.78 1006.19 1005.58 1005.02 1004.57 1004.28 1004.14 1004.17 1004.32 1004.56 1004.87 1005.21 1005.59 1006.02 1006.50 1007.06 1007.71 1008.44 1009.22 1010.00 1010.75 1011.42 1011.97 1012.39 1012.70 1012.93 1013.10 1013.28 1013.48 1013.73 1014.04 1014.40 1014.77 1015.13 1015.47 1015.77 1016.03 1016.26 1016.49 1016.74 1017.01 1017.31 1017.63
1008.20 1008.26 1008.28 1008.20 1007.98 1007.61 1007.09 1006.49 1005.85 1005.24 1004.73 1004.37 1004.16 1004.09 1004.14 1004.27 1004.44 1004.65 1004.88 1005.16 1005.52 1005.99 1006.58 1007.30 1008.12 1008.98 1009.84 1010.62 1011.30 1011.83 1012.21 1012.47 1012.66 1012.82 1012.99 1013.22 1013.52 1013.87 1014.27 1014.68 1015.07 1015.41 1015.71 1015.97 1016.20 1016.42 1016.67 1016.96 1017.27
1008.54 1008.63 1008.69 1008.63 1008.43 1008.07 1007.55 1006.92 1006.24 1005.59 1005.03 1004.61 1004.33 1004.18 1004.14 1004.16 1004.20 1004.26 1004.33 1004.46 1004.67 1005.01 1005.50 1006.17 1006.99 1007.90 1008.84 1009.73 1010.52 1011.16 1011.63 1011.95 1012.16 1012.32 1012.47 1012.68 1012.96 1013.32 1013.74 1014.19 1014.63 1015.04 1015.38 1015.66 1015.90 1016.11 1016.32 1016.56 1016.85
1009.14 1009.25 1009.31 1009.27 1009.07 1008.68 1008.14 1007.47 1006.75 1006.06 1005.45 1004.97 1004.64 1004.43 1004.31 1004.23 1004.15 1004.07 1003.98 1003.93 1003.97 1004.15 1004.52 1005.10 1005.87 1006.79 1007.78 1008.75 1009.64 1010.38 1010.94 1011.33 1011.57 1011.74 1011.89 1012.08 1012.35 1012.71 1013.15 1013.63 1014.13 1014.58 1014.98 1015.30 1015.54 1015.74 1015.91 1016.10 1016.33
1009.97 1010.06 1010.11 1010.05 1009.82 1009.40 1008.81 1008.10 1007.34 1006.60 1005.95 1005.43 1005.05 1004.79 1004.60 1004.44 1004.26 1004.05 1003.81 1003.59 1003.45 1003.46 1003.67 1004.12 1004.81 1005.69 1006.68 1007.70 1008.66 1009.48 1010.13 1010.59 1010.88 1011.07 1011.23 1011.41 1011.66 1012.01 1012.45 1012.97 1013.50 1014.01 1014.46 1014.81 1015.08 1015.27 1015.41 1015.55 1015.72
1010.91 1010.96 1010.97 1010.87 1010.59 1010.13 1009.49 1008.74 1007.93 1007.15 1006.46 1005.91 1005.49 1005.19 1004.96 1004.74 1004.48 1004.16 1003.79 1003.41 1003.10 1002.92 1002.96 1003.25 1003.82 1004.61 1005.57 1006.59 1007.59 1008.48 1009.20 1009.72 1010.08 1010.30 1010.46 1010.64 1010.87 1011.21 1011.65 1012.17 1012.73 1013.28 1013.78 1014.18 1014.48 1014.68 1014.81 1014.92 1015.04
1011.82 1011.82 1011.77 1011.60 1011.28 1010.77 1010.09 1009.30 1008.45 1007.64 1006.93 1006.35 1005.91 1005.59 1005.32 1005.05 1004.73 1004.33 1003.85 1003.34 1002.87 1002.53 1002.39 1002.51 1002.92 1003.60 1004.48 1005.47 1006.48 1007.40 1008.18 1008.77 1009.18 1009.44 1009.63 1009.80 1010.02 1010.34 1010.76 1011.27 1011.85 1012.42 1012.95 1013.40 1013.74 1013.98 1014.13 1014.23 1014.33
1012.56 1012.48 1012.36 1012.14 1011.77 1011.23 1010.53 1009.71 1008.86 1008.04 1007.31 1006.72 1006.27 1005.92 1005.64 1005.34 1004.98 1004.52 1003.96 1003.35 1002.76 1002.26 1001.96 1001.91 1002.17 1002.70 1003.48 1004.40 1005.38 1006.31 1007.13 1007.77 1008.24 1008.55 1008.77 1008.95 1009.16 1009.45 1009.85 1010.34 1010.90 1011.48 1012.04 1012.52 1012.91 1013.20 1013.39 1013.52 1013.64
1013.03 1012.88 1012.70 1012.43 1012.03 1011.47 1010.77 1009.97 1009.13 1008.31 1007.59 1006.99 1006.53 1006.18 1005.87 1005.56 1005.18 1004.69 1004.09 1003.41 1002.72 1002.11 1001.67 1001.47 1001.57 1001.96 1002.61 1003.44 1004.36 1005.29 1006.12 1006.81 1007.33 1007.70 1007.96 1008.16 1008.37 1008.64 1009.00 1009.45 1009.98 1010.55 1011.11 1011.62 1012.05 1012.39 1012.64 1012.82 1012.97
Thickness
5820 5824 5825 5819 5812 5807 5793 5795 5803 5799 5800 5805 5805 5801 5794 5786 5780 5769 5786 5793 5792 5790 5786 5781 5779 5777 5776 5775 5774 5773 5773 5773 5772 5771 5770 5770 5769 5769 5769 5768 5768 5768 5767 5766 5765 5764 5763 5762 5761
5829 5827 5822 5820 5813 5794 5787 5800 5799 5800 5804 5807 5805 5802 5795 5788 5791 5788 5790 5791 5792 5790 5786 5782 5777 5776 5775 5773 5772 5772 5772 5771 5770 5770 5769 5769 5768 5768 5768 5767 5767 5767 5766 5765 5764 5763 5762 5761 5760
5831 5829 5823 5821 5809 5796 5790 5802 5803 5806 5810 5807 5801 5801 5794 5787 5790 5791 5792 5792 5792 5789 5785 5780 5776 5775 5773 5772 5771 5771 5770 5770 5769 5769 5768 5768 5767 5767 5767 5767 5766 5766 5765 5764 5763 5762 5761 5760 5758
5832 5829 5827 5818 5802 5805 5807 5808 5810 5807 5808 5809 5805 5796 5794 5794 5796 5796 5795 5794 5792 5788 5785 5779 5776 5774 5773 5771 5770 5770 5769 5768 5768 5768 5767 5767 5767 5767 5767 5766 5766 5765 5764 5764 5762 5761 5760 5759 5758
5835 5830 5821 5811 5806 5811 5817 5817 5816 5808 5806 5806 5805 5793 5787 5794 5800 5798 5795 5794 5791 5788 5785 5780 5775 5774 5772 5771 5770 5769 5768 5768 5767 5767 5767 5766 5766 5766 5766 5765 5765 5764 5763 5762 5761 5760 5759 5758 5757
5832 5834 5816 5804 5805 5814 5820 5822 5818 5810 5807 5807 5804 5795 5787 5796 5797 5796 5797 5793 5792 5789 5786 5780 5775 5773 5771 5770 5769 5768 5767 5767 5767 5766 5766 5766 5765 5765 5765 5764 5764 5763 5762 5761 5760 5759 5758 5757 5756
5830 5828 5815 5813 5810 5811 5818 5826 5818 5811 5806 5807 5809 5796 5790 5794 5797 5797 5796 5793 5790 5789 5786 5782 5779 5775 5771 5770 5768 5767 5767 5766 5766 5766 5765 5765 5765 5764 5764 5764 5763 5762 5761 5760 5759 5758 5758 5757 5756
5841 5834 5822 5819 5814 5812 5825 5826 5823 5817 5810 5817 5815 5798 5790 5795 5799 5798 5795 5792 5789 5787 5786 5783 5781 5778 5776 5773 5769 5768 5767 5766 5765 5765 5765 5764 5764 5764 5764 5764 5762 5761 5760 5760 5759 5758 5757 5756 5756
5846 5832 5818 5819 5818 5820 5829 5824 5824 5827 5818 5815 5815 5811 5807 5803 5800 5795 5792 5789 5786 5785 5785 5785 5783 5780 5778 5776 5771 5769 5767 5766 5766 5765 5764 5765 5767 5767 5765 5764 5762 5761 5760 5759 5758 5758 5757 5757 5756
5842 5828 5824 5833 5835 5831 5830 5827 5825 5821 5811 5808 5807 5808 5808 5803 5798 5794 5790 5787 5786 5784 5785 5784 5783 5781 5779 5776 5773 5772 5771 5769 5769 5768 5767 5768 5767 5767 5765 5761 5761 5760 5760 5759 5758 5758 5757 5758 5760
5841 5831 5836 5840 5844 5841 5833 5830 5831 5822 5811 5812 5808 5804 5804 5801 5798 5796 5793 5792 5790 5788 5786 5785 5783 5781 5779 5776 5775 5773 5772 5770 5769 5767 5767 5766 5766 5766 5765 5764 5762 5761 5760 5761 5759 5760 5762 5762 5761
5840 5840 5842 5844 5847 5842 5837 5834 5829 5825 5823 5828 5823 5815 5807 5802 5800 5798 5795 5794 5792 5790 5787 5787 5784 5781 5779 5777 5776 5774 5773 5771 5770 5767 5766 5766 5766 5765 5765 5764 5764 5763 5762 5761 5762 5760 5760 5760 5760
5840 5841 5846 5849 5848 5845 5840 5834 5830 5827 5832 5832 5825 5816 5810 5807 5805 5803 5801 5797 5794 5790 5789 5787 5784 5780 5777 5775 5775 5775 5773 5773 5771 5767 5766 5766 5767 5766 5765 5764 5762 5764 5763 5762 5761 5761 5760 5760 5760
5845 5846 5847 5848 5846 5844 5836 5834 5831 5828 5833 5828 5822 5816 5814 5811 5809 5804 5801 5797 5795 5792 5790 5788 5784 5781 5778 5777 5775 5775 5774 5771 5771 5769 5767 5766 5766 5765 5764 5763 5762 5762 5762 5762 5761 5761 5760 5760 5760
5850 5842 5842 5844 5844 5843 5839 5826 5830 5834 5832 5825 5821 5818 5816 5814 5812 5807 5804 5801 5799 5795 5792 5789 5786 5783 5780 5778 5777 5776 5774 5773 5772 5770 5767 5766 5766 5764 5764 5765 5763 5763 5762 5760 5760 5760 5760 5759 5759
5845 5838 5830 5838 5843 5842 5834 5820 5833 5839 5832 5824 5822 5820 5817 5815 5815 5812 5809 5806 5803 5798 5794 5791 5790 5786 5782 5779 5777 5777 5776 5774 5772 5771 5769 5766 5765 5764 5764 5764 5764 5762 5762 5761 5760 5760 5759 5758 5757
5834 5828 5827 5832 5842 5842 5835 5827 5835 5840 5834 5826 5824 5822 5819 5816 5816 5815 5813 5809 5806 5801 5796 5792 5790 5787 5785 5781 5778 5777 5775 5774 5773 5771 5770 5767 5765 5764 5764 5764 5763 5761 5761 5760 5760 5760 5758 5756 5755
5822 5826 5826 5827 5838 5837 5832 5832 5837 5839 5836 5831 5827 5825 5821 5818 5817 5818 5815 5813 5808 5803 5798 5794 5791 5788 5785 5783 5780 5778 5776 5775 5774 5772 5769 5767 5766 5764 5764 5764 5762 5761 5760 5758 5758 5756 5755 5755 5754
5829 5825 5823 5830 5840 5834 5831 5831 5836 5839 5836 5831 5829 5827 5824 5822 5824 5821 5817 5814 5810 5804 5799 5795 5792 5788 5785 5783 5781 5778 5776 5775 5774 5773 5770 5768 5766 5765 5763 5764 5762 5760 5760 5758 5758 5756 5755 5754 5754
5824 5819 5822 5830 5836 5831 5829 5831 5840 5840 5837 5836 5833 5830 5827 5825 5824 5820 5818 5815 5812 5806 5801 5797 5793 5791 5788 5786 5783 5781 5779 5778 5776 5774 5770 5768 5766 5765 5765 5762 5763 5761 5759 5757 5756 5754 5754 5754 5754
5820 5819 5820 5820 5828 5832 5825 5824 5833 5841 5842 5841 5839 5838 5835 5830 5826 5822 5819 5817 5814 5809 5805 5802 5797 5794 5790 5788 5785 5782 5778 5777 5776 5773 5771 5769 5767 5765 5764 5763 5762 5760 5760 5758 5756 5755 5752 5751 5753
5813 5828 5823 5819 5814 5818 5821 5808 5829 5839 5836 5837 5838 5838 5837 5835 5832 5827 5823 5819 5816 5814 5810 5805 5800 5795 5792 5789 5786 5782 5778 5776 5776 5775 5773 5770 5768 5766 5764 5763 5761 5760 5761 5759 5758 5757 5754 5751 5750
5819 5827 5822 5818 5813 5811 5818 5809 5825 5839 5831 5837 5841 5842 5842 5839 5836 5831 5828 5824 5821 5818 5813 5807 5802 5797 5794 5791 5787 5783 5781 5780 5779 5776 5772 5770 5769 5767 5765 5763 5761 5760 5760 5759 5757 5756 5754 5753 5751
5823 5816 5814 5815 5812 5794 5810 5806 5814 5836 5835 5840 5844 5844 5843 5842 5839 5835 5833 5828 5823 5820 5815 5810 5803 5798 5795 5792 5789 5785 5782 5779 5777 5774 5772 5770 5770 5768 5766 5764 5762 5761 5760 5759 5757 5756 5754 5753 5751
5813 5800 5788 5785 5789 5796 5815 5806 5817 5840 5845 5844 5843 5843 5844 5843 5840 5835 5831 5828 5824 5820 5816 5812 5805 5799 5796 5793 5789 5786 5783 5780 5776 5774 5773 5771 5771 5769 5766 5765 5762 5761 5759 5758 5757 5755 5754 5752 5749
5807 5805 5785 5775 5784 5801 5804 5801 5824 5841 5844 5845 5845 5844 5843 5842 5841 5838 5835 5830 5826 5822 5818 5814 5807 5801 5798 5794 5790 5787 5784 5782 5780 5776 5776 5773 5772 5771 5767 5764 5761 5759 5758 5757 5755 5755 5752 5750 5748
5800 5801 5813 5798 5792 5788 5800 5810 5824 5835 5835 5837 5838 5838 5836 5837 5838 5837 5835 5831 5827 5823 5820 5815 5808 5802 5798 5795 5791 5787 5784 5782 5781 5778 5775 5774 5771 5770 5766 5762 5760 5759 5756 5755 5754 5753 5750 5749 5748
5806 5806 5798 5789 5769 5768 5787 5797 5807 5817 5823 5829 5830 5830 5832 5834 5834 5834 5832 5830 5827 5824 5820 5816 5810 5803 5799 5796 5792 5788 5785 5782 5780 5778 5774 5772 5770 5768 5764 5761 5759 5757 5755 5753 5752 5751 5748 5746 5745
5790 5790 5790 5789 5787 5771 5772 5795 5824 5820 5822 5822 5825 5827 5828 5829 5830 5830 5829 5827 5825 5823 5819 5813 5808 5802 5798 5795 5791 5788 5785 5782 5779 5776 5773 5770 5768 5765 5762 5760 5757 5756 5753 5751 5749 5749 5746 5744 5742
5793 5790 5786 5773 5770 5776 5775 5792 5827 5823 5823 5821 5820 5821 5822 5823 5825 5825 5824 5822 5819 5817 5815 5811 5807 5803 5798 5794 5789 5785 5783 5780 5777 5774 5771 5768 5765 5763 5760 5758 5755 5753 5751 5749 5747 5744 5743 5741 5738